| time (UTC) | temp F | wind direction | speed MPH | gust MPH | rain 1hr in | rain 24hr in | rain mn in | humidity % | barometer mb |
| 20260510043035 | 58 | 216 | 1.0 | 4.0 | 0.00 | 0.00 | 0.00 | 70 | 1018.2 |
| 20260510041641 | 60 | 202 | 0.0 | 1.0 | 0.00 | 0.00 | 0.00 | 69 | 1018.0 |
| 20260510040036 | 61 | 193 | 0.0 | 3.0 | 0.00 | 0.00 | 0.00 | 67 | 1017.8 |
| 20260510033030 | 65 | 220 | 0.0 | 3.0 | 0.00 | 0.00 | 0.00 | 60 | 1017.5 |
| 20260510031650 | 67 | 202 | 0.0 | 0.0 | 0.00 | 0.00 | 0.00 | 57 | 1017.4 |
| 20260510030033 | 68 | 202 | 0.0 | 0.0 | 0.00 | 0.00 | 0.00 | 55 | 1017.5 |
| 20260510023105 | 71 | 202 | 2.0 | 3.0 | 0.00 | 0.00 | 0.00 | 52 | 1017.4 |
| 20260510021534 | 72 | 290 | 0.0 | 4.0 | 0.00 | 0.00 | 0.00 | 51 | 1017.3 |
| 20260510014530 | 74 | 337 | 0.0 | 0.0 | 0.00 | 0.00 | 0.00 | 47 | 1017.5 |
| 20260510013035 | 73 | 337 | 0.0 | 0.0 | 0.00 | 0.00 | 0.00 | 45 | 1017.6 |
| 20260510010030 | 78 | 337 | 0.0 | 1.0 | 0.00 | 0.00 | 0.00 | 40 | 1017.8 |
| 20260510004529 | 79 | 297 | 0.0 | 2.0 | 0.00 | 0.00 | 0.00 | 38 | 1017.7 |
| 20260510003033 | 79 | 292 | 0.0 | 1.0 | 0.00 | 0.00 | 0.00 | 36 | 1017.8 |
| 20260509234535 | 78 | 302 | 0.0 | 2.0 | 0.00 | 0.00 | 0.00 | 36 | 1018.2 |
| 20260509233149 | 77 | 329 | 1.0 | 6.0 | 0.00 | 0.00 | 0.00 | 36 | 1018.5 |
| 20260509231533 | 77 | 343 | 1.0 | 6.0 | 0.00 | 0.00 | 0.00 | 35 | 1018.7 |
| 20260509230035 | 78 | 5 | 1.0 | 7.0 | 0.00 | 0.00 | 0.00 | 35 | 1019.0 |
| 20260509224531 | 78 | 342 | 1.0 | 6.0 | 0.00 | 0.00 | 0.00 | 37 | 1019.2 |
| 20260509223030 | 78 | 319 | 1.0 | 6.0 | 0.00 | 0.00 | 0.00 | 39 | 1019.6 |
| 20260509221536 | 77 | 350 | 1.0 | 5.0 | 0.00 | 0.00 | 0.00 | 40 | 1019.8 |
| 20260509214532 | 76 | 343 | 1.0 | 5.0 | 0.00 | 0.00 | 0.00 | 39 | 1020.2 |
| 20260509213034 | 75 | 359 | 1.0 | 6.0 | 0.00 | 0.00 | 0.00 | 37 | 1020.5 |
| 20260509211605 | 75 | 357 | 3.0 | 8.0 | 0.00 | 0.00 | 0.00 | 39 | 1020.7 |
| 20260509204537 | 74 | 349 | 2.0 | 7.0 | 0.00 | 0.00 | 0.00 | 45 | 1021.0 |
| 20260509203032 | 74 | 355 | 2.0 | 7.0 | 0.00 | 0.00 | 0.00 | 47 | 1021.1 |
| 20260509201536 | 73 | 348 | 2.0 | 6.0 | 0.00 | 0.00 | 0.00 | 48 | 1021.3 |
| 20260509200035 | 73 | 335 | 2.0 | 6.0 | 0.00 | 0.00 | 0.00 | 49 | 1021.7 |
| 20260509194535 | 73 | 319 | 1.0 | 4.0 | 0.00 | 0.00 | 0.00 | 50 | 1021.9 |
| 20260509193036 | 72 | 340 | 1.0 | 6.0 | 0.00 | 0.00 | 0.00 | 51 | 1022.1 |
| 20260509190145 | 70 | 328 | 0.0 | 4.0 | 0.00 | 0.00 | 0.00 | 53 | 1022.5 |
| 20260509184610 | 70 | 332 | 0.0 | 5.0 | 0.00 | 0.00 | 0.00 | 54 | 1022.7 |
| 20260509183150 | 69 | 333 | 0.0 | 6.0 | 0.00 | 0.00 | 0.00 | 54 | 1023.0 |
| 20260509181535 | 68 | 11 | 0.0 | 3.0 | 0.00 | 0.00 | 0.00 | 55 | 1023.1 |
| 20260509174534 | 66 | 326 | 0.0 | 4.0 | 0.00 | 0.00 | 0.00 | 58 | 1023.2 |
| 20260509173036 | 65 | 344 | 0.0 | 4.0 | 0.00 | 0.00 | 0.00 | 60 | 1023.3 |
| 20260509171542 | 64 | 66 | 1.0 | 4.0 | 0.00 | 0.00 | 0.00 | 59 | 1023.6 |
| 20260509170144 | 63 | 10 | 0.0 | 5.0 | 0.00 | 0.00 | 0.00 | 61 | 1023.8 |
| 20260509164607 | 62 | 27 | 0.0 | 3.0 | 0.00 | 0.00 | 0.00 | 63 | 1023.9 |
| 20260509161534 | 59 | 87 | 1.0 | 4.0 | 0.00 | 0.00 | 0.00 | 67 | 1024.3 |
| 20260509160029 | 59 | 40 | 1.0 | 4.0 | 0.00 | 0.00 | 0.00 | 71 | 1024.4 |
| 20260509154531 | 58 | 58 | 1.0 | 3.0 | 0.00 | 0.00 | 0.00 | 73 | 1024.5 |
| 20260509151607 | 56 | 25 | 1.0 | 3.0 | 0.00 | 0.00 | 0.00 | 78 | 1024.4 |
| 20260509150033 | 54 | 120 | 0.0 | 1.0 | 0.00 | 0.00 | 0.00 | 83 | 1024.4 |
| 20260509144543 | 52 | 181 | 0.0 | 0.0 | 0.00 | 0.00 | 0.00 | 89 | 1024.5 |
| 20260509143029 | 49 | 225 | 0.0 | 0.0 | 0.00 | 0.00 | 0.00 | 94 | 1024.5 |
| 20260509141550 | 47 | 225 | 0.0 | 0.0 | 0.00 | 0.00 | 0.00 | 95 | 1024.4 |
| 20260509140036 | 43 | 225 | 0.0 | 2.0 | 0.00 | 0.00 | 0.00 | 95 | 1024.2 |
| 20260509134537 | 40 | 225 | 0.0 | 2.0 | 0.00 | 0.00 | 0.00 | 95 | 1024.1 |
| 20260509133033 | 39 | 179 | 2.0 | 3.0 | 0.00 | 0.00 | 0.00 | 94 | 1024.1 |
| 20260509131607 | 39 | 185 | 0.0 | 2.0 | 0.00 | 0.00 | 0.00 | 94 | 1024.0 |
| 20260509130032 | 40 | 213 | 2.0 | 3.0 | 0.00 | 0.00 | 0.00 | 94 | 1023.7 |
| 20260509124541 | 40 | 202 | 0.0 | 1.0 | 0.00 | 0.00 | 0.00 | 94 | 1023.7 |
| 20260509123031 | 41 | 189 | 0.0 | 0.0 | 0.00 | 0.00 | 0.00 | 93 | 1023.6 |
| 20260509121536 | 41 | 157 | 0.0 | 0.0 | 0.00 | 0.00 | 0.00 | 93 | 1023.6 |
| 20260509120035 | 41 | 212 | 0.0 | 3.0 | 0.00 | 0.00 | 0.00 | 93 | 1023.6 |
| 20260509114531 | 42 | 220 | 0.0 | 3.0 | 0.00 | 0.00 | 0.00 | 92 | 1023.5 |
| 20260509113035 | 42 | 247 | 0.0 | 2.0 | 0.00 | 0.00 | 0.00 | 92 | 1023.5 |
| 20260509111537 | 42 | 214 | 1.0 | 4.0 | 0.00 | 0.00 | 0.00 | 91 | 1023.5 |
| 20260509110033 | 42 | 182 | 0.0 | 3.0 | 0.00 | 0.00 | 0.00 | 90 | 1023.5 |
| 20260509104607 | 43 | 168 | 0.0 | 4.0 | 0.00 | 0.00 | 0.00 | 90 | 1023.5 |
| 20260509103105 | 43 | 223 | 0.0 | 3.0 | 0.00 | 0.00 | 0.00 | 90 | 1023.6 |
| 20260509101531 | 44 | 189 | 0.0 | 3.0 | 0.00 | 0.00 | 0.00 | 88 | 1023.6 |
| 20260509094606 | 45 | 138 | 0.0 | 3.0 | 0.00 | 0.00 | 0.00 | 87 | 1023.6 |
| 20260509093030 | 46 | 225 | 2.0 | 4.0 | 0.00 | 0.00 | 0.00 | 85 | 1023.7 |
| 20260509091535 | 47 | 309 | 0.0 | 2.0 | 0.00 | 0.00 | 0.00 | 84 | 1023.8 |
| 20260509090029 | 48 | 290 | 0.0 | 0.0 | 0.00 | 0.00 | 0.00 | 84 | 1023.9 |
| 20260509084533 | 48 | 224 | 0.0 | 3.0 | 0.00 | 0.00 | 0.00 | 83 | 1024.1 |
| 20260509083035 | 48 | 184 | 0.0 | 2.0 | 0.00 | 0.00 | 0.00 | 82 | 1024.3 |
| 20260509081635 | 49 | 157 | 0.0 | 0.0 | 0.00 | 0.00 | 0.00 | 79 | 1024.3 |
| 20260509074533 | 52 | 219 | 0.0 | 2.0 | 0.00 | 0.00 | 0.00 | 75 | 1024.6 |
| 20260509073032 | 52 | 277 | 0.0 | 2.0 | 0.00 | 0.00 | 0.00 | 75 | 1024.6 |
| 20260509071536 | 52 | 284 | 0.0 | 3.0 | 0.00 | 0.00 | 0.00 | 75 | 1024.6 |
| 20260509070032 | 52 | 287 | 0.0 | 2.0 | 0.00 | 0.00 | 0.00 | 74 | 1024.7 |
| 20260509064610 | 53 | 268 | 0.0 | 3.0 | 0.00 | 0.00 | 0.00 | 74 | 1024.9 |
| 20260509063030 | 53 | 285 | 0.0 | 2.0 | 0.00 | 0.00 | 0.00 | 73 | 1024.9 |
| 20260509061534 | 55 | 267 | 0.0 | 0.0 | 0.00 | 0.00 | 0.00 | 69 | 1024.9 |
| 20260509060032 | 56 | 199 | 0.0 | 1.0 | 0.00 | 0.00 | 0.00 | 67 | 1024.9 |
| 20260509051529 | 52 | 203 | 2.0 | 4.0 | 0.00 | 0.00 | 0.00 | 73 | 1024.6 |
| 20260509050031 | 52 | 167 | 0.0 | 2.0 | 0.00 | 0.00 | 0.00 | 73 | 1024.6 |
| 20260509044532 | 52 | 219 | 0.0 | 4.0 | 0.00 | 0.00 | 0.00 | 72 | 1024.5 |